Time,TemperatureF,DewpointF,PressureIn,WindDirection,WindDirectionDegrees,WindSpeedMPH,WindSpeedGustMPH,Humidity,HourlyPrecipIn,Conditions,Clouds,dailyrainin,SoftwareType,DateUTC
2013-04-12 00:03:00,26.0,-99.9,-100.00,ENE,68,1.0,13.0,-999,0.05,,,0.12,,2013-04-12 04:03:00,
2013-04-12 00:13:00,26.0,-99.9,-100.00,ENE,68,1.0,13.0,-999,0.05,,,0.12,,2013-04-12 04:13:00,
2013-04-12 00:23:00,26.0,-99.9,-100.00,East,90,5.0,12.0,-999,0.03,,,0.12,,2013-04-12 04:23:00,
2013-04-12 00:33:00,26.0,-99.9,-100.00,ESE,113,3.0,14.0,-999,0.01,,,0.12,,2013-04-12 04:33:00,
2013-04-12 00:43:00,26.0,-99.9,-100.00,ESE,113,3.0,14.0,-999,0.01,,,0.12,,2013-04-12 04:43:00,
2013-04-12 00:53:00,26.0,-99.9,-100.00,East,90,3.0,12.0,-999,0.01,,,0.13,,2013-04-12 04:53:00,
2013-04-12 01:03:00,26.0,-99.9,-100.00,East,90,2.0,10.0,-999,0.01,,,0.13,,2013-04-12 05:03:00,
2013-04-12 01:12:00,26.0,-99.9,-100.00,East,90,2.0,10.0,-999,0.01,,,0.13,,2013-04-12 05:12:00,
2013-04-12 01:23:00,26.0,-99.9,-100.00,East,90,3.0,12.0,-999,0.01,,,0.13,,2013-04-12 05:23:00,
2013-04-12 01:32:00,26.0,-99.9,-100.00,ENE,68,2.0,9.0,-999,0.01,,,0.13,,2013-04-12 05:32:00,
2013-04-12 01:42:00,26.0,-99.9,-100.00,ENE,68,2.0,9.0,-999,0.01,,,0.13,,2013-04-12 05:42:00,
2013-04-12 01:52:00,26.0,-99.9,-100.00,East,90,3.0,9.0,-999,0.00,,,0.13,,2013-04-12 05:52:00,
2013-04-12 02:02:00,26.0,-99.9,-100.00,ENE,68,2.0,10.0,-999,0.00,,,0.13,,2013-04-12 06:02:00,
2013-04-12 02:12:00,26.0,-99.9,-100.00,ENE,68,2.0,10.0,-999,0.00,,,0.13,,2013-04-12 06:12:00,
2013-04-12 02:22:00,26.0,-99.9,-100.00,East,90,2.0,14.0,-999,0.00,,,0.13,,2013-04-12 06:22:00,
2013-04-12 02:32:00,26.0,-99.9,-100.00,East,90,9.0,15.0,-999,0.00,,,0.13,,2013-04-12 06:32:00,
2013-04-12 02:42:00,26.0,-99.9,-100.00,East,90,9.0,15.0,-999,0.00,,,0.13,,2013-04-12 06:42:00,
2013-04-12 02:52:00,26.0,-99.9,-100.00,East,90,7.0,14.0,-999,0.00,,,0.13,,2013-04-12 06:52:00,
2013-04-12 03:02:00,26.0,-99.9,-100.00,NE,45,1.0,12.0,-999,0.00,,,0.13,,2013-04-12 07:02:00,
2013-04-12 03:12:00,26.0,-99.9,-100.00,NE,45,1.0,12.0,-999,0.00,,,0.13,,2013-04-12 07:12:00,
2013-04-12 03:22:00,26.0,-99.9,-100.00,ENE,68,6.0,12.0,-999,0.00,,,0.13,,2013-04-12 07:22:00,
2013-04-12 03:32:00,26.0,-99.9,-100.00,East,90,3.0,16.0,-999,0.00,,,0.13,,2013-04-12 07:32:00,
2013-04-12 03:42:00,26.0,-99.9,-100.00,East,90,3.0,16.0,-999,0.00,,,0.13,,2013-04-12 07:42:00,
2013-04-12 03:52:00,26.0,-99.9,-100.00,East,90,5.0,13.0,-999,0.00,,,0.13,,2013-04-12 07:52:00,
2013-04-12 04:03:00,26.0,-99.9,-100.00,East,90,2.0,10.0,-999,0.00,,,0.13,,2013-04-12 08:03:00,
2013-04-12 04:12:00,26.0,-99.9,-100.00,East,90,2.0,10.0,-999,0.00,,,0.13,,2013-04-12 08:12:00,
2013-04-12 04:22:00,26.0,-99.9,-100.00,East,90,1.0,14.0,-999,0.00,,,0.13,,2013-04-12 08:22:00,
2013-04-12 04:32:00,26.0,-99.9,-100.00,ENE,68,2.0,12.0,-999,0.00,,,0.13,,2013-04-12 08:32:00,
2013-04-12 04:43:00,26.0,-99.9,-100.00,ENE,68,2.0,12.0,-999,0.00,,,0.13,,2013-04-12 08:43:00,
2013-04-12 04:53:00,26.0,-99.9,-100.00,ENE,68,2.0,12.0,-999,0.00,,,0.13,,2013-04-12 08:53:00,
2013-04-12 05:02:00,26.0,-99.9,-100.00,ENE,68,5.0,12.0,-999,0.00,,,0.13,,2013-04-12 09:02:00,
2013-04-12 05:12:00,26.0,-99.9,-100.00,ENE,68,5.0,12.0,-999,0.00,,,0.13,,2013-04-12 09:12:00,
2013-04-12 05:22:00,26.0,-99.9,-100.00,East,90,3.0,10.0,-999,0.00,,,0.13,,2013-04-12 09:22:00,
2013-04-12 05:33:00,26.0,-99.9,-100.00,ENE,68,2.0,12.0,-999,0.00,,,0.13,,2013-04-12 09:33:00,
2013-04-12 05:44:00,26.0,-99.9,-100.00,ENE,68,2.0,12.0,-999,0.00,,,0.13,,2013-04-12 09:44:00,
2013-04-12 05:53:00,26.0,-99.9,-100.00,ENE,68,3.0,9.0,-999,0.00,,,0.13,,2013-04-12 09:53:00,
2013-04-12 06:03:00,26.0,-99.9,-100.00,ENE,68,3.0,9.0,-999,0.00,,,0.13,,2013-04-12 10:03:00,
2013-04-12 06:13:00,26.0,-99.9,-100.00,East,90,2.0,12.0,-999,0.00,,,0.13,,2013-04-12 10:13:00,
2013-04-12 06:23:00,26.0,-99.9,-100.00,East,90,2.0,12.0,-999,0.00,,,0.13,,2013-04-12 10:23:00,
2013-04-12 06:34:00,26.0,-99.9,-100.00,ENE,68,5.0,10.0,-999,0.00,,,0.13,,2013-04-12 10:34:00,
2013-04-12 06:43:00,26.0,-99.9,-100.00,ENE,68,5.0,10.0,-999,0.00,,,0.13,,2013-04-12 10:43:00,
2013-04-12 06:53:00,25.0,-99.9,-100.00,East,90,3.0,12.0,-999,0.00,,,0.13,,2013-04-12 10:53:00,
2013-04-12 07:03:00,25.0,-99.9,-100.00,ENE,68,1.0,9.0,-999,0.00,,,0.13,,2013-04-12 11:03:00,
2013-04-12 07:13:00,25.0,-99.9,-100.00,ENE,68,1.0,9.0,-999,0.00,,,0.13,,2013-04-12 11:13:00,
2013-04-12 07:22:00,25.0,-99.9,-100.00,ENE,68,3.0,8.0,-999,0.00,,,0.13,,2013-04-12 11:22:00,
2013-04-12 07:33:00,25.0,-99.9,-100.00,ENE,68,1.0,7.0,-999,0.00,,,0.13,,2013-04-12 11:33:00,
2013-04-12 07:43:00,25.0,-99.9,-100.00,ENE,68,1.0,7.0,-999,0.00,,,0.13,,2013-04-12 11:43:00,
2013-04-12 07:53:00,25.0,-99.9,-100.00,NE,45,5.0,10.0,-999,0.01,,,0.14,,2013-04-12 11:53:00,
2013-04-12 08:03:00,25.0,-99.9,-100.00,NE,45,2.0,8.0,-999,0.02,,,0.15,,2013-04-12 12:03:00,
2013-04-12 08:13:00,25.0,-99.9,-100.00,NE,45,2.0,8.0,-999,0.02,,,0.15,,2013-04-12 12:13:00,
2013-04-12 08:22:00,25.0,-99.9,-100.00,NE,45,1.0,7.0,-999,0.02,,,0.15,,2013-04-12 12:22:00,
2013-04-12 08:33:00,25.0,-99.9,-100.00,NE,45,2.0,7.0,-999,0.02,,,0.15,,2013-04-12 12:33:00,
2013-04-12 08:43:00,25.0,-99.9,-100.00,NE,45,2.0,7.0,-999,0.02,,,0.15,,2013-04-12 12:43:00,
2013-04-12 08:54:00,25.0,-99.9,-100.00,ENE,68,1.0,7.0,-999,0.01,,,0.15,,2013-04-12 12:54:00,
2013-04-12 09:03:00,26.0,-99.9,-100.00,NE,45,2.0,6.0,-999,0.00,,,0.15,,2013-04-12 13:03:00,
2013-04-12 09:13:00,26.0,-99.9,-100.00,NE,45,2.0,6.0,-999,0.00,,,0.15,,2013-04-12 13:13:00,
2013-04-12 09:22:00,26.0,-99.9,-100.00,NE,45,2.0,8.0,-999,0.00,,,0.15,,2013-04-12 13:22:00,
2013-04-12 09:33:00,27.0,-99.9,-100.00,NE,45,3.0,8.0,-999,0.01,,,0.16,,2013-04-12 13:33:00,
2013-04-12 09:43:00,27.0,-99.9,-100.00,NE,45,3.0,8.0,-999,0.01,,,0.16,,2013-04-12 13:43:00,
2013-04-12 09:53:00,27.0,-99.9,-100.00,NNE,23,3.0,8.0,-999,0.01,,,0.16,,2013-04-12 13:53:00,
2013-04-12 10:04:00,27.0,-99.9,-100.00,NE,45,3.0,8.0,-999,0.01,,,0.16,,2013-04-12 14:04:00,
2013-04-12 10:13:00,27.0,-99.9,-100.00,NE,45,3.0,8.0,-999,0.01,,,0.16,,2013-04-12 14:13:00,
2013-04-12 10:23:00,28.0,-99.9,-100.00,NE,45,1.0,12.0,-999,0.01,,,0.16,,2013-04-12 14:23:00,
2013-04-12 10:33:00,28.0,-99.9,-100.00,ENE,68,2.0,15.0,-999,0.00,,,0.16,,2013-04-12 14:33:00,
2013-04-12 10:43:00,28.0,-99.9,-100.00,ENE,68,2.0,15.0,-999,0.00,,,0.16,,2013-04-12 14:43:00,
2013-04-12 10:54:00,29.0,-99.9,-100.00,East,90,2.0,9.0,-999,0.00,,,0.16,,2013-04-12 14:54:00,
2013-04-12 11:03:00,30.0,-99.9,-100.00,NE,45,1.0,9.0,-999,0.00,,,0.16,,2013-04-12 15:03:00,
2013-04-12 11:12:00,30.0,-99.9,-100.00,NE,45,1.0,9.0,-999,0.00,,,0.16,,2013-04-12 15:12:00,
2013-04-12 11:22:00,30.0,-99.9,-100.00,NE,45,1.0,12.0,-999,0.00,,,0.16,,2013-04-12 15:22:00,
2013-04-12 11:33:00,30.0,-99.9,-100.00,NE,45,2.0,12.0,-999,0.00,,,0.16,,2013-04-12 15:33:00,
2013-04-12 11:43:00,30.0,-99.9,-100.00,NE,45,2.0,12.0,-999,0.00,,,0.16,,2013-04-12 15:43:00,
2013-04-12 11:53:00,30.0,-99.9,-100.00,East,90,5.0,9.0,-999,0.01,,,0.17,,2013-04-12 15:53:00,
2013-04-12 12:04:00,31.0,-99.9,-100.00,East,90,2.0,9.0,-999,0.01,,,0.17,,2013-04-12 16:04:00,
2013-04-12 12:14:00,31.0,-99.9,-100.00,East,90,2.0,9.0,-999,0.01,,,0.17,,2013-04-12 16:14:00,
2013-04-12 12:23:00,31.0,-99.9,-100.00,NE,45,3.0,9.0,-999,0.01,,,0.17,,2013-04-12 16:23:00,
2013-04-12 12:34:00,32.0,-99.9,-100.00,NE,45,5.0,12.0,-999,0.01,,,0.17,,2013-04-12 16:34:00,
2013-04-12 12:43:00,32.0,-99.9,-100.00,NE,45,5.0,12.0,-999,0.01,,,0.17,,2013-04-12 16:43:00,
2013-04-12 12:53:00,32.0,-99.9,-100.00,NE,45,5.0,10.0,-999,0.00,,,0.17,,2013-04-12 16:53:00,
2013-04-12 13:04:00,33.0,-99.9,-100.00,NNE,23,2.0,8.0,-999,0.00,,,0.17,,2013-04-12 17:04:00,
2013-04-12 13:13:00,33.0,-99.9,-100.00,NNE,23,2.0,8.0,-999,0.00,,,0.17,,2013-04-12 17:13:00,
2013-04-12 13:23:00,35.0,-99.9,-100.00,NE,45,1.0,7.0,-999,0.00,,,0.17,,2013-04-12 17:23:00,
2013-04-12 13:34:00,35.0,-99.9,-100.00,NNE,23,3.0,6.0,-999,0.00,,,0.17,,2013-04-12 17:34:00,
2013-04-12 13:47:00,35.0,-99.9,-100.00,NNE,23,3.0,6.0,-999,0.00,,,0.17,,2013-04-12 17:47:00,
2013-04-12 14:08:00,33.0,-99.9,-100.00,NE,45,2.0,12.0,-999,0.00,,,0.17,,2013-04-12 18:08:00,
2013-04-12 15:27:00,36.0,-99.9,-100.00,NNW,338,1.0,6.0,-999,0.00,,,0.17,,2013-04-12 19:27:00,
2013-04-12 15:33:00,36.0,-99.9,-100.00,North,0,0.0,3.0,-999,0.00,,,0.17,,2013-04-12 19:33:00,
2013-04-12 15:43:00,36.0,-99.9,-100.00,North,0,0.0,3.0,-999,0.00,,,0.17,,2013-04-12 19:43:00,
2013-04-12 15:53:00,37.0,-99.9,-100.00,North,0,0.0,3.0,-999,0.00,,,0.17,,2013-04-12 19:53:00,
2013-04-12 16:02:00,34.0,-99.9,-100.00,North,0,2.0,7.0,-999,0.00,,,0.17,,2013-04-12 20:02:00,
2013-04-12 16:13:00,34.0,-99.9,-100.00,North,0,2.0,7.0,-999,0.00,,,0.17,,2013-04-12 20:13:00,
2013-04-12 16:22:00,34.0,-99.9,-100.00,North,0,3.0,6.0,-999,0.00,,,0.17,,2013-04-12 20:22:00,
2013-04-12 16:33:00,36.0,-99.9,-100.00,North,0,1.0,3.0,-999,0.00,,,0.17,,2013-04-12 20:33:00,
2013-04-12 16:43:00,36.0,-99.9,-100.00,North,0,1.0,3.0,-999,0.00,,,0.17,,2013-04-12 20:43:00,
2013-04-12 16:53:00,37.0,-99.9,-100.00,North,0,3.0,5.0,-999,0.00,,,0.17,,2013-04-12 20:53:00,
2013-04-12 17:03:00,37.0,-99.9,-100.00,North,0,1.0,6.0,-999,0.00,,,0.17,,2013-04-12 21:03:00,
2013-04-12 17:12:00,37.0,-99.9,-100.00,North,0,1.0,6.0,-999,0.00,,,0.17,,2013-04-12 21:12:00,
2013-04-12 17:22:00,36.0,-99.9,-100.00,North,0,1.0,3.0,-999,0.00,,,0.17,,2013-04-12 21:22:00,
2013-04-12 17:33:00,35.0,-99.9,-100.00,North,0,0.0,3.0,-999,0.00,,,0.17,,2013-04-12 21:33:00,
2013-04-12 17:43:00,35.0,-99.9,-100.00,North,0,0.0,3.0,-999,0.00,,,0.17,,2013-04-12 21:43:00,
2013-04-12 17:53:00,34.0,-99.9,-100.00,North,0,1.0,3.0,-999,0.00,,,0.17,,2013-04-12 21:53:00,
2013-04-12 18:03:00,34.0,-99.9,-100.00,North,0,0.0,2.0,-999,0.00,,,0.17,,2013-04-12 22:03:00,
2013-04-12 18:13:00,34.0,-99.9,-100.00,North,0,0.0,2.0,-999,0.00,,,0.17,,2013-04-12 22:13:00,
2013-04-12 18:23:00,32.0,-99.9,-100.00,North,0,2.0,7.0,-999,0.00,,,0.17,,2013-04-12 22:23:00,
2013-04-12 18:33:00,33.0,-99.9,-100.00,North,0,2.0,5.0,-999,0.00,,,0.17,,2013-04-12 22:33:00,
2013-04-12 18:43:00,33.0,-99.9,-100.00,North,0,2.0,5.0,-999,0.00,,,0.17,,2013-04-12 22:43:00,
2013-04-12 18:53:00,33.0,-99.9,-100.00,North,0,0.0,3.0,-999,0.00,,,0.17,,2013-04-12 22:53:00,
2013-04-12 19:04:00,32.0,-99.9,-100.00,WNW,293,1.0,3.0,-999,0.00,,,0.17,,2013-04-12 23:04:00,
2013-04-12 19:12:00,32.0,-99.9,-100.00,WNW,293,1.0,3.0,-999,0.00,,,0.17,,2013-04-12 23:12:00,
2013-04-12 19:22:00,33.0,-99.9,-100.00,NW,315,2.0,3.0,-999,0.01,,,0.18,,2013-04-12 23:22:00,
2013-04-12 19:32:00,33.0,-99.9,-100.00,NW,315,0.0,2.0,-999,0.01,,,0.18,,2013-04-12 23:32:00,
2013-04-12 19:43:00,33.0,-99.9,-100.00,NW,315,0.0,2.0,-999,0.01,,,0.18,,2013-04-12 23:43:00,
2013-04-12 19:52:00,32.0,-99.9,-100.00,North,0,0.0,3.0,-999,0.01,,,0.18,,2013-04-12 23:52:00,
2013-04-12 20:02:00,32.0,-99.9,-100.00,North,0,0.0,2.0,-999,0.01,,,0.18,,2013-04-13 00:02:00,
2013-04-12 20:12:00,32.0,-99.9,-100.00,North,0,0.0,2.0,-999,0.01,,,0.18,,2013-04-13 00:12:00,
2013-04-12 20:22:00,31.0,-99.9,-100.00,North,0,0.0,1.0,-999,0.00,,,0.18,,2013-04-13 00:22:00,
2013-04-12 20:32:00,30.0,-99.9,-100.00,NNE,23,2.0,6.0,-999,0.00,,,0.17,,2013-04-13 00:32:00,
2013-04-12 20:42:00,30.0,-99.9,-100.00,NNE,23,2.0,6.0,-999,0.00,,,0.17,,2013-04-13 00:42:00,
2013-04-12 20:52:00,30.0,-99.9,-100.00,North,0,0.0,3.0,-999,0.00,,,0.17,,2013-04-13 00:52:00,
2013-04-12 21:02:00,30.0,-99.9,-100.00,North,0,0.0,2.0,-999,0.00,,,0.16,,2013-04-13 01:02:00,
2013-04-12 21:13:00,30.0,-99.9,-100.00,North,0,0.0,2.0,-999,0.00,,,0.16,,2013-04-13 01:13:00,
2013-04-12 21:23:00,30.0,-99.9,-100.00,North,0,0.0,2.0,-999,0.00,,,0.14,,2013-04-13 01:23:00,
2013-04-12 21:33:00,30.0,-99.9,-100.00,North,0,0.0,3.0,-999,0.00,,,0.14,,2013-04-13 01:33:00,
2013-04-12 21:43:00,30.0,-99.9,-100.00,North,0,0.0,3.0,-999,0.00,,,0.14,,2013-04-13 01:43:00,
2013-04-12 21:52:00,29.0,-99.9,-100.00,North,0,1.0,3.0,-999,0.00,,,0.12,,2013-04-13 01:52:00,
2013-04-12 22:02:00,28.0,-99.9,-100.00,North,0,2.0,6.0,-999,0.00,,,0.12,,2013-04-13 02:02:00,
2013-04-12 22:12:00,28.0,-99.9,-100.00,North,0,2.0,6.0,-999,0.00,,,0.12,,2013-04-13 02:12:00,
2013-04-12 22:23:00,28.0,-99.9,-100.00,North,0,0.0,3.0,-999,0.00,,,0.12,,2013-04-13 02:23:00,
2013-04-12 22:33:00,28.0,-99.9,-100.00,North,0,0.0,2.0,-999,0.00,,,0.12,,2013-04-13 02:33:00,
2013-04-12 22:43:00,28.0,-99.9,-100.00,North,0,0.0,2.0,-999,0.00,,,0.12,,2013-04-13 02:43:00,
2013-04-12 22:53:00,28.0,-99.9,-100.00,North,0,1.0,3.0,-999,0.00,,,0.12,,2013-04-13 02:53:00,
2013-04-12 23:03:00,28.0,-99.9,-100.00,NNE,23,1.0,3.0,-999,0.00,,,0.11,,2013-04-13 03:03:00,
2013-04-12 23:12:00,28.0,-99.9,-100.00,NNE,23,1.0,3.0,-999,0.00,,,0.11,,2013-04-13 03:12:00,
2013-04-12 23:23:00,28.0,-99.9,-100.00,NNW,338,0.0,2.0,-999,0.00,,,0.09,,2013-04-13 03:23:00,
2013-04-12 23:33:00,28.0,-99.9,-100.00,NW,315,0.0,2.0,-999,0.00,,,0.08,,2013-04-13 03:33:00,
2013-04-12 23:43:00,28.0,-99.9,-100.00,NW,315,0.0,2.0,-999,0.00,,,0.08,,2013-04-13 03:43:00,
2013-04-12 23:54:00,27.0,-99.9,-100.00,NW,315,0.0,3.0,-999,0.00,,,0.06,,2013-04-13 03:54:00,